Attu

KL  EN  DA
ASIAQ
Weather Now GREENLAND SURVEY
Updated [WGT/WGST] Temperature [°C] Wind [m/s] Air pressure [hPa] Relative humidity [%] Precipitation [mm]
Present Wind chill Speed Max
27.09 01:00-2,3-6,83,6 ⇙5,1102170n/a
27.09 00:00-2,1-6,94,1 ⇙6,7102167n/a
26.09 23:00-1,5-6,24,1 ⇙5,7102066n/a
26.09 22:00-1,4-5,73,6 ⇙4,6102061n/a
26.09 21:00-1,2-6,85,7 ⇙7,7102067n/a
26.09 20:00-1,0-5,23,6 ⇙6,2102073n/a
26.09 19:00-1,2-3,11,5 ⇙3,6101974n/a
26.09 18:00-0,9-3,62,1 ⇙3,6101968n/a
26.09 17:00-0,70,01,0 ⇐2,6101963n/a
26.09 16:00-0,6-3,82,6 ⇐4,1101962n/a
26.09 15:00-0,7-4,83,6 ⇐4,6101862n/a
26.09 14:00-0,8-4,63,1 ⇐5,1101861n/a
26.09 13:00-0,5-4,23,1 ⇙5,1101963n/a
26.09 12:00-0,8-5,03,6 ⇙6,2101863n/a
26.09 11:00-1,0-5,94,6 ⇐6,2101965n/a
26.09 10:00-1,4-7,15,7 ⇐7,2101867n/a
26.09 09:00-1,4-6,75,1 ⇐6,7101865n/a
26.09 08:00-1,4-5,73,6 ⇐5,1101865n/a
26.09 07:00-1,5-6,24,1 ⇐6,2101965n/a
26.09 06:00-1,5-6,24,1 ⇐5,7101965n/a
26.09 05:00-1,4-5,73,6 ⇐5,1101968n/a
26.09 04:00-1,3-5,63,6 ⇐4,6101960n/a
26.09 03:00-1,3-4,72,6 ⇐5,7101964n/a
26.09 02:00-1,3-5,23,1 ⇐5,1101961n/a
26.09 01:00-1,3-6,34,6 ⇐5,7101962n/a
Position: (67.78416666666,-53.965)

[Back]